When you browse on this site, cookies collect data to enhance your experience and personalize the content and advertising you see.
Visit our Privacy Policy to learn more. By continuing to use the site, you agree to this use of cookies and data.
  • In Sweden
  • List of Countries
  • For 7 days
  • Water Temperature
  • Weather Map
  • Weather Widgets
  • user-avatar
    Login

    Hourly Weather Felling

    Today, 22 September, Sunday

    Time Temperature Precipitation Wind Pressure Humidity
    00:00 +12°C° 0 mm 3 mps 749 mmHg 89%
    01:00 +12°C° 0 mm 3 mps 748 mmHg 88%
    02:00 +13°C° 0 mm 2 mps 748 mmHg 87%
    03:00 +13°C° 0 mm 2 mps 748 mmHg 85%
    04:00 +13°C° 0 mm 2 mps 747 mmHg 85%
    05:00 +13°C° 0 mm 2 mps 747 mmHg 85%
    06:00 +14°C° 0 mm 2 mps 747 mmHg 85%
    07:00 +14°C° 0.1 mm 2 mps 746 mmHg 86%
    08:00 +15°C° 0.1 mm 2 mps 746 mmHg 86%
    09:00 +15°C° 0.1 mm 2 mps 746 mmHg 87%
    10:00 +16°C° 0.1 mm 2 mps 746 mmHg 85%
    11:00 +17°C° 0.1 mm 2 mps 746 mmHg 84%
    12:00 +18°C° 0.1 mm 3 mps 746 mmHg 82%
    13:00 +19°C° 0.1 mm 3 mps 746 mmHg 80%
    14:00 +20°C° 0.1 mm 3 mps 746 mmHg 78%
    15:00 +21°C° 0.1 mm 4 mps 745 mmHg 76%
    16:00 +19°C° 1.7 mm 4 mps 745 mmHg 81%
    17:00 +17°C° 1.7 mm 3 mps 746 mmHg 87%
    18:00 +16°C° 1.7 mm 3 mps 746 mmHg 92%
    19:00 +14°C° 1.2 mm 3 mps 746 mmHg 93%
    20:00 +15°C° 1.2 mm 2 mps 746 mmHg 93%
    21:00 +15°C° 1.2 mm 2 mps 746 mmHg 93%
    22:00 +15°C° 0.1 mm 2 mps 746 mmHg 92%
    23:00 +14°C° 0.1 mm 2 mps 747 mmHg 92%

    Tomorrow, 23 September, Monday

    Time Temperature Precipitation Wind Pressure Humidity
    00:00 +14°C° 0.1 mm 2 mps 747 mmHg 92%
    01:00 +14°C° 0 mm 2 mps 747 mmHg 92%
    02:00 +14°C° 0 mm 2 mps 747 mmHg 92%
    03:00 +13°C° 0 mm 2 mps 747 mmHg 92%
    04:00 +13°C° 0 mm 2 mps 747 mmHg 92%
    05:00 +13°C° 0 mm 2 mps 748 mmHg 91%
    06:00 +13°C° 0 mm 2 mps 748 mmHg 91%
    07:00 +14°C° 0 mm 2 mps 748 mmHg 87%
    08:00 +14°C° 0 mm 3 mps 748 mmHg 84%
    09:00 +16°C° 0 mm 3 mps 748 mmHg 80%
    10:00 +17°C° 0 mm 3 mps 748 mmHg 76%
    11:00 +18°C° 0 mm 3 mps 749 mmHg 72%
    12:00 +19°C° 0 mm 3 mps 749 mmHg 68%
    13:00 +19°C° 0 mm 4 mps 748 mmHg 66%
    14:00 +18°C° 0 mm 4 mps 748 mmHg 65%
    15:00 +18°C° 0 mm 4 mps 748 mmHg 63%
    16:00 +17°C° 0 mm 4 mps 748 mmHg 66%
    17:00 +15°C° 0 mm 4 mps 747 mmHg 70%
    18:00 +14°C° 0 mm 4 mps 747 mmHg 73%
    19:00 +14°C° 0 mm 4 mps 747 mmHg 74%
    20:00 +14°C° 0 mm 5 mps 747 mmHg 75%
    21:00 +14°C° 0 mm 6 mps 747 mmHg 76%
    22:00 +14°C° 0.3 mm 6 mps 746 mmHg 80%
    23:00 +14°C° 0.3 mm 6 mps 745 mmHg 85%

    Day after tomorrow, 24 September, Tuesday

    Time Temperature Precipitation Wind Pressure Humidity
    00:00 +13°C° 0.3 mm 6 mps 745 mmHg 90%
    01:00 +14°C° 0.2 mm 6 mps 744 mmHg 91%
    02:00 +14°C° 0.2 mm 5 mps 744 mmHg 92%
    03:00 +14°C° 0.2 mm 5 mps 743 mmHg 92%
    04:00 +14°C° 0 mm 4 mps 743 mmHg 93%
    05:00 +14°C° 0 mm 4 mps 742 mmHg 94%
    06:00 +14°C° 0 mm 4 mps 742 mmHg 94%
    07:00 +15°C° 0 mm 4 mps 742 mmHg 93%
    08:00 +15°C° 0 mm 4 mps 741 mmHg 91%
    09:00 +16°C° 0 mm 5 mps 741 mmHg 89%
    10:00 +16°C° 0.2 mm 5 mps 741 mmHg 89%
    11:00 +17°C° 0.2 mm 4 mps 741 mmHg 89%
    12:00 +18°C° 0.2 mm 4 mps 741 mmHg 88%
    13:00 +17°C° 1.2 mm 4 mps 740 mmHg 89%
    14:00 +17°C° 1.2 mm 3 mps 740 mmHg 90%
    15:00 +17°C° 1.2 mm 3 mps 740 mmHg 91%
    16:00 +16°C° 0.9 mm 3 mps 740 mmHg 91%
    17:00 +16°C° 0.9 mm 3 mps 740 mmHg 91%
    18:00 +14°C° 0.9 mm 3 mps 739 mmHg 91%
    19:00 +14°C° 0.6 mm 3 mps 740 mmHg 90%
    20:00 +14°C° 0.6 mm 4 mps 740 mmHg 90%
    21:00 +14°C° 0.6 mm 4 mps 740 mmHg 89%
    22:00 +14°C° 1.1 mm 4 mps 740 mmHg 89%
    23:00 +13°C° 1.1 mm 5 mps 740 mmHg 89%

    25 September, Wednesday

    Time Temperature Precipitation Wind Pressure Humidity
    00:00 +13°C° 1.1 mm 5 mps 739 mmHg 89%
    01:00 +13°C° 0.7 mm 6 mps 739 mmHg 88%
    02:00 +13°C° 0.7 mm 6 mps 740 mmHg 87%
    03:00 +11°C° 0.7 mm 7 mps 740 mmHg 87%
    04:00 +11°C° 0.2 mm 6 mps 739 mmHg 87%
    05:00 +11°C° 0.2 mm 6 mps 739 mmHg 87%
    06:00 +11°C° 0.2 mm 6 mps 739 mmHg 87%
    07:00 +12°C° 0.1 mm 5 mps 739 mmHg 85%
    08:00 +13°C° 0.1 mm 5 mps 740 mmHg 84%
    09:00 +13°C° 0.1 mm 5 mps 740 mmHg 82%
    10:00 +14°C° 0 mm 4 mps 740 mmHg 78%
    11:00 +15°C° 0 mm 4 mps 740 mmHg 75%
    12:00 +17°C° 0 mm 3 mps 740 mmHg 71%
    13:00 +18°C° 0 mm 3 mps 740 mmHg 70%
    14:00 +18°C° 0 mm 3 mps 739 mmHg 69%
    15:00 +18°C° 0 mm 2 mps 739 mmHg 68%
    16:00 +17°C° 0 mm 2 mps 739 mmHg 72%
    17:00 +17°C° 0 mm 3 mps 739 mmHg 76%
    18:00 +16°C° 0 mm 3 mps 739 mmHg 80%
    19:00 +16°C° 0.3 mm 3 mps 739 mmHg 84%
    20:00 +14°C° 0.3 mm 4 mps 739 mmHg 88%
    21:00 +14°C° 0.3 mm 4 mps 739 mmHg 92%
    22:00 +14°C° 0.1 mm 4 mps 738 mmHg 92%
    23:00 +15°C° 0.1 mm 5 mps 738 mmHg 93%

    26 September, Thursday

    Time Temperature Precipitation Wind Pressure Humidity
    00:00 +15°C° 0.1 mm 5 mps 737 mmHg 93%
    01:00 +15°C° 0.2 mm 5 mps 737 mmHg 92%
    02:00 +15°C° 0.2 mm 6 mps 737 mmHg 92%
    03:00 +15°C° 0.2 mm 6 mps 736 mmHg 91%
    04:00 +15°C° 0.1 mm 6 mps 736 mmHg 91%
    05:00 +15°C° 0.1 mm 6 mps 736 mmHg 91%
    06:00 +15°C° 0.1 mm 6 mps 735 mmHg 91%
    07:00 +15°C° 0.7 mm 6 mps 735 mmHg 87%
    08:00 +15°C° 0.7 mm 7 mps 735 mmHg 82%
    09:00 +16°C° 0.7 mm 7 mps 736 mmHg 78%
    10:00 +16°C° 0.1 mm 7 mps 736 mmHg 76%
    11:00 +16°C° 0.1 mm 8 mps 736 mmHg 73%
    12:00 +16°C° 0.1 mm 8 mps 736 mmHg 71%
    13:00 +16°C° 0 mm 8 mps 736 mmHg 69%
    14:00 +16°C° 0 mm 7 mps 737 mmHg 68%
    15:00 +15°C° 0 mm 7 mps 737 mmHg 66%
    16:00 +15°C° 0 mm 6 mps 737 mmHg 70%
    17:00 +14°C° 0 mm 5 mps 737 mmHg 73%
    18:00 +13°C° 0 mm 5 mps 738 mmHg 77%
    19:00 +13°C° 0 mm 5 mps 738 mmHg 78%
    20:00 +12°C° 0 mm 5 mps 738 mmHg 78%
    21:00 +11°C° 0 mm 6 mps 738 mmHg 79%
    22:00 +11°C° 0 mm 6 mps 738 mmHg 79%
    23:00 +11°C° 0 mm 6 mps 738 mmHg 79%

    27 September, Friday

    Time Temperature Precipitation Wind Pressure Humidity
    00:00 +11°C° 0 mm 6 mps 738 mmHg 79%
    01:00 +11°C° 0.1 mm 6 mps 738 mmHg 81%
    02:00 +11°C° 0.1 mm 6 mps 738 mmHg 82%
    03:00 +11°C° 0.1 mm 7 mps 738 mmHg 84%
    04:00 +11°C° 0 mm 6 mps 738 mmHg 85%
    05:00 +11°C° 0 mm 6 mps 738 mmHg 86%
    06:00 +11°C° 0 mm 6 mps 737 mmHg 87%
    07:00 +13°C° 0 mm 6 mps 737 mmHg 84%
    08:00 +14°C° 0 mm 6 mps 737 mmHg 82%
    09:00 +14°C° 0 mm 6 mps 737 mmHg 79%
    10:00 +15°C° 0.1 mm 6 mps 737 mmHg 77%
    11:00 +15°C° 0.1 mm 7 mps 737 mmHg 74%
    12:00 +16°C° 0.1 mm 7 mps 737 mmHg 72%
    13:00 +16°C° 0.2 mm 7 mps 737 mmHg 73%
    14:00 +16°C° 0.2 mm 7 mps 737 mmHg 73%
    15:00 +16°C° 0.2 mm 6 mps 737 mmHg 74%
    16:00 +15°C° 0.2 mm 6 mps 737 mmHg 77%
    17:00 +14°C° 0.2 mm 5 mps 737 mmHg 80%
    18:00 +14°C° 0.2 mm 5 mps 737 mmHg 82%
    19:00 +13°C° 0 mm 4 mps 737 mmHg 84%
    20:00 +13°C° 0 mm 4 mps 737 mmHg 85%
    21:00 +12°C° 0 mm 4 mps 737 mmHg 87%
    22:00 +12°C° 0 mm 4 mps 737 mmHg 87%
    23:00 +12°C° 0 mm 4 mps 737 mmHg 87%
    Show more